This is the latest recevied weather packets stored in our database for station/object APPOWX. If no packets are shown the sender has not sent any weather packets the latest 10 day(s).
| Time | Temp. | Humidity | Pressure | Rain* | Wind** | Luminosity | Snow |
|---|---|---|---|---|---|---|---|
| 1777143991 | 24.44° C | 64% | 1010.4 hPa | 0 mm | - | - | - |
| 1777143931 | 24.44° C | 64% | 1010.3 hPa | 0 mm | - | - | - |
| 1777143871 | 24.44° C | 62% | 1010.4 hPa | 0 mm | - | - | - |
| 1777143811 | 23.89° C | 62% | 1010.5 hPa | 0 mm | - | - | - |
| 1777143750 | 24.44° C | 62% | 1010.4 hPa | 0 mm | - | - | - |
| 1777143691 | 24.44° C | 62% | 1010.4 hPa | 0 mm | - | - | - |
| 1777143631 | 25° C | 62% | 1010.5 hPa | 0 mm | - | - | - |
| 1777143570 | 25° C | 61% | 1010.4 hPa | 0 mm | - | - | - |
| 1777143510 | 25° C | 61% | 1010.6 hPa | 0 mm | - | - | - |
| 1777143450 | 24.44° C | 60% | 1010.6 hPa | 0 mm | - | - | - |
| 1777143389 | 24.44° C | 60% | 1010.6 hPa | 0 mm | - | - | - |
| 1777143329 | 25° C | 60% | 1010.6 hPa | 0 mm | - | - | - |
| 1777143269 | 25° C | 60% | 1010.6 hPa | 0 mm | - | - | - |
| 1777143210 | 24.44° C | 61% | 1010.6 hPa | 0 mm | - | - | - |
| 1777143150 | 24.44° C | 60% | 1010.5 hPa | 0 mm | - | - | - |
| 1777143089 | 24.44° C | 60% | 1010.7 hPa | 0 mm | - | - | - |
| 1777143029 | 25° C | 64% | 1010.7 hPa | 0 mm | - | - | - |
| 1777142969 | 24.44° C | 61% | 1010.6 hPa | 0 mm | - | - | - |
| 1777142909 | 24.44° C | 61% | 1010.7 hPa | 0 mm | - | - | - |
| 1777142849 | 25° C | 61% | 1010.8 hPa | 0 mm | - | - | - |
| 1777142790 | 25° C | 60% | 1010.7 hPa | 0 mm | - | - | - |
| 1777142729 | 25° C | 60% | 1010.7 hPa | 0 mm | - | - | - |
| 1777142669 | 25° C | 59% | 1010.6 hPa | 0 mm | - | - | - |
| 1777142608 | 24.44° C | 59% | 1010.6 hPa | 0 mm | - | - | - |
| 1777142548 | 24.44° C | 61% | 1010.8 hPa | 0 mm | - | - | - |
* Rain latest hour (hover to see other rain measurements)
** Current wind speed in m/s (hover to see current wind gust speed)